Вернуться в каталог

STARLINK-31210

АктивенСвязьVLEO
NORAD 59033·PAYLOAD·🇺🇸 United States

Запущен Feb 25, 2024 с Cape Canaveral Space Force Station

Loading…

Ближайшие Пролёты (ближайшие 24 часа)

TLE

СвежийSource: CelesTrak SupGP

Эпоха: Sep 15, 2026, 03:05 UTC

1 59033C 24038L   26258.12895833 -.00014908  00000+0 -53986-3 0  2584
2 59033  43.0042  33.7942 0001513 268.3054 305.1502 15.27592759    10

Отслеживайте STARLINK-31210 в реальном времени с AllMySat

Download on the App Store